Regional Weather Roundup
Issued by NWS

Home | Current Version | Previous Version | Graphics & Text | Print | Product List | Glossary On
Versions: 1 2 3 4 5 6 7 8 9 10 11 12 13 14 15 16 17 18 19 20 21 22 23 24 25 26 27 28 29 30 31 32 33 34 35 36 37 38 39 40 41 42 43 44 45 46 47 48 49 50
000
ASUS43 KMKX 241517
RWRWI

WISCONSIN REGIONAL WEATHER ROUNDUP
NATIONAL WEATHER SERVICE MILWAUKEE/SULLIVAN WI
1000 AM CDT SUN MAY 24 2015

NOTE: "FAIR" INDICATES FEW OR NO CLOUDS BELOW 12,000 FEET WITH NO
SIGNIFICANT WEATHER AND/OR OBSTRUCTIONS TO VISIBILITY.

WIZ001-002-006>008-014>016-023>028-241600-
NORTHWEST WISCONSIN

CITY           SKY/WX    TMP DP  RH WIND       PRES   REMARKS
SUPERIOR ARPT  PTSUNNY   66  46  47 CALM      30.09F
ASHLAND        PTSUNNY   69  49  48 CALM      30.11F
HAYWARD        CLOUDY    66  47  50 CALM      30.10F
SIREN          CLOUDY    60  52  75 NE5       30.08F
CUMBERLAND     CLOUDY    63  46  55 SE5       30.09S
RICE LAKE      CLOUDY    66  47  51 SE6       30.10S
CHETEK         CLOUDY    65  51  60 E5        30.09S
LADYSMITH      CLOUDY    66  49  54 E3        30.12F
EAU CLAIRE     NOT AVBL
MENOMONIE      CLOUDY    64  50  61 E5        30.08S
NEW RICHMOND   CLOUDY    63  49  62 SE6       30.07S
OSCEOLA        CLOUDY    63  52  69 E5        30.09S
$$

WIZ003>005-009-010-017-018-241600-
NORTH CENTRAL WISCONSIN

CITY           SKY/WX    TMP DP  RH WIND       PRES   REMARKS
MANITOWISH WTR CLOUDY    67  47  49 S3        30.13F
ARBOR VITAE    CLOUDY    69  48  45 S3        30.13F
WOODRUFF       CLOUDY    69  48  45 S3        30.13F
RHINELANDER    CLOUDY    69  46  43 S3        30.14F
EAGLE RIVER    CLOUDY    69  39  32 CALM      30.13F
LAND O LAKES   PTSUNNY   71  41  34 SE3       30.14F
PHILLIPS       CLOUDY    66  48  51 CALM      30.11F
TOMAHAWK       CLOUDY    67  49  52 CALM      30.13F
MEDFORD        CLOUDY    65  51  60 SE5       30.12F
MERRILL        CLOUDY    66  49  53 CALM      30.13F
$$

WIZ029-030-035-036-043>047-241600-
CENTRAL WISCONSIN

CITY           SKY/WX    TMP DP  RH WIND       PRES   REMARKS
WAUSAU         CLOUDY    67  52  58 CALM      30.11F
MOSINEE        SUNNY     66  52  59 SE5       30.14S
MARSHFIELD     CLOUDY    66  49  54 S6        30.12S
STEVENS POINT  CLOUDY    64  47  53 SE3       30.13S
WAUPACA        CLOUDY    66  50  54 S3        30.14R
WAUTOMA        NOT AVBL
WISC RAPIDS    CLOUDY    67  48  50 SW9       30.14R
CAMP DOUGLAS   LGT RAIN  59  59 100 S10       30.14R
$$

WIZ011>013-019>022-031-037>040-048>050-241600-
NORTHEAST WISCONSIN

CITY           SKY/WX    TMP DP  RH WIND       PRES   REMARKS
ANTIGO         CLOUDY    66  50  57 S6        30.15S
SHAWANO        CLOUDY    67  49  53 CALM      30.13F
OCONTO         CLOUDY    66  50  55 CALM      30.13S
STURGEON BAY   CLOUDY    68  46  45 CALM      30.16F
GREEN BAY      CLOUDY    69  49  48 S6        30.14S
MANITOWOC      NOT AVBL
APPLETON       PTSUNNY   66  50  55 S7        30.14S
CLINTONVILLE   CLOUDY    64  48  55 CALM      30.13S
OSHKOSH        CLOUDY    69  51  52 S15       30.14R
$$

WIZ032>034-041-042-053>061-241600-
SOUTHWEST WISCONSIN

CITY           SKY/WX    TMP DP  RH WIND       PRES   REMARKS
LA CROSSE      LGT RAIN  62  56  80 SE6       30.10F
SPARTA         RAIN      59  53  81 S6        30.14R
VIROQUA        CLOUDY    58  54  88 S9        30.14R
BOSCOBEL       RAIN      60  57  89 VRB3      30.11F FOG
PRAIRIE DU CHI LGT RAIN  59  55  88 E6        30.10F
PLATTEVILLE    CLOUDY    59  57  93 E8        30.12F
$$

WIZ056-057-062-063-064-067-068-241600-
SOUTH CENTRAL WISCONSIN

CITY           SKY/WX    TMP DP  RH WIND       PRES   REMARKS
REEDSBURG      LGT RAIN  57  55  92 CALM      30.15R
BARABOO/DELLS  LGT RAIN  58  54  84 SW3       30.16R
LONE ROCK      NOT AVBL
MINERAL POINT  RAIN      57  55  94 SE7       30.14F
MADISON        LGT RAIN  61  54  77 S3        30.16R
MIDDLETON      CLOUDY    62  54  74 S5        30.16S
WATERTOWN      LGT RAIN  63  54  74 S3        30.16R
MONROE         RAIN      59  55  88 E5        30.14F
JANESVILLE     CLOUDY    64  55  72 S6        30.16R
$$

WIZ051-052-058>065-066-070>072-241600-
SOUTHEAST WISCONSIN

CITY           SKY/WX    TMP DP  RH WIND       PRES   REMARKS
MILWAUKEE      LGT RAIN  65  52  62 SW7       30.18R
WAUKESHA       LGT RAIN  61  52  72 S5        30.18S FOG
MILWAUKEE/TIMM DRIZZLE   64  50  59 CALM      30.18S
RACINE         CLOUDY    63  50  62 S3        30.19S
BURLINGTON     LGT RAIN  63  52  67 S3        30.17S
KENOSHA        CLOUDY    67  53  61 S5        30.17F
FOND DU LAC    CLOUDY    68  50  52 S14       30.16R
SHEBOYGAN      CLOUDY    68  52  56 S12       30.16R
WEST BEND      RAIN      64  52  63 S5        30.17R
JUNEAU         DRIZZLE   62  53  72 SW3       30.18R
$$

LSZ147-162-241600-
LAKE SUPERIOR

STATION/POSITION TIME  TEMP    WIND        PRES    WAVE
                       AIR SEA DIR/SP/G            HT/PER
                 (UTC) (F)     (DEG/KT/KT) (MB)    (FT/S)
W MID LAKE BUOY  1350   42 36  220/ 10/ 12   N/A     1
DEVILS ISLAND    1400   59     230/  5/  7   N/A
PORT WING        1400   54     300/  3/  3   N/A
SAXON HARBOR     1430   56     300/  4/ 20   N/A
$$

LMZ867-665-643>646-241600-
LAKE MICHIGAN

STATION/POSITION TIME  TEMP    WIND        PRES    WAVE
                       AIR SEA DIR/SP/G            HT/PER
                 (UTC) (F)     (DEG/KT/KT) (MB)    (FT/S)
CHAMBERS ISLAND  1400   61      CALM  /  3   N/A
N MID LAKE BUOY  1350   42 36  180/  8/ 10   N/A     1
NORTHPORT PIER   1400   51     140/  6/  9   N/A
SISTER BAY       1417   69     150/  8/ 10   N/A
KEWAUNEE LAKESHO 1400   49     160/  6/  9   N/A
SHEBOYGAN LAKESH 1400   53     170/ 11/ 12   N/A
PORT WASHINGTON  1400   52     200/  3/  5   N/A
ATWATER BUOY     1400   50 46  170/  4/  6   N/A
MILWAUKEE LAKESH 1400   54      CALM  /  1   N/A
S MID LAKE BUOY  1350   47     160/  8/  8   N/A
$$

TC  - TEMPERATURE IN CELSIUS
VSB - VISIBILITY IN STATUTE MILES
WCI - WIND CHILL INDEX
HX  - HEAT INDEX



USA.gov is the U.S. government's official web portal to all federal, state and local government web resources and services.